{"data":{"norad_id":55378,"intl_designator":"2023-013AZ","name":"STARLINK-5572","alt_names":[],"object_type":"PAYLOAD","status":"ACTIVE","operator":null,"country":"US","launch_date":"2023-01-26","launch_site_code":"AFETR","launch_vehicle":null,"mission":null,"orbit_class":"UNKNOWN","rcs_meters":null,"size_class":null,"mass_kg":null,"dimensions":null,"purposes":["comms"],"wikipedia_slug":null,"has_3d_model":false,"image_url":null,"decayed_at":null,"tle_current":{"epoch":"2026-09-20T13:58:53.594400Z","epoch_age_seconds":89530,"freshness":"FRESH","line1":"1 55378U 23013AZ  26263.58256475  .00000067  00000+0  11953-4 0  9993","line2":"2 55378  43.0026 300.5311 0001495 271.0534  89.0147 15.27578216201274","mean_motion":15.27578216,"eccentricity":0.0001495,"inclination_deg":43.0026,"raan_deg":300.5311,"arg_perigee_deg":271.0534,"mean_anomaly_deg":89.0147,"bstar":1.1953e-5,"rev_number":20127,"period_min":94.266858804171,"perigee_km":482.02868986266,"apogee_km":484.08018610262,"semimajor_km":6861.1914379826,"source":"CELESTRAK","updated_at":"2026-09-21T09:00:33.211176Z"}}}